Overview Statistics Trail Chart Weather Telemetry Raw packets
 

This is the latest recevied weather packets stored in our database for station/object K8RRT. If no packets are shown the sender has not sent any weather packets the latest 10 day(s).

<< 24 25 26 27 28 29 30 >>
Time Temp. Humidity Pressure Rain* Wind** Luminosity Snow
1788449545 31.67° C 73% 1013.8 hPa 0 mm - 779 W/m² -
1788449241 31.67° C 73% 1014 hPa 0 mm - 758 W/m² -
1788448937 31.67° C 74% 1013.8 hPa 0 mm - 764 W/m² -
1788448637 31.67° C 73% 1014 hPa 0 mm - 744 W/m² -
1788448332 31.11° C 74% 1013.9 hPa 0 mm - 681 W/m² -
1788448027 31.11° C 74% 1014.1 hPa 0 mm - 702 W/m² -
1788447722 31.67° C 75% 1013.9 hPa 0 mm - 677 W/m² -
1788447422 31.11° C 74% 1013.9 hPa 0 mm - 681 W/m² -
1788447117 31.11° C 75% 1014.1 hPa 0 mm - 607 W/m² -
1788446816 30.56° C 75% 1014 hPa 0 mm - 597 W/m² -
1788446512 30.56° C 77% 1014.1 hPa 0 mm - 599 W/m² -
1788446208 30° C 78% 1013.8 hPa 0 mm - 588 W/m² -
1788445903 30° C 78% 1014 hPa 0 mm - 491 W/m² -
1788445616 30° C 76% 1014 hPa 0 mm - 495 W/m² -
1788445296 30° C 77% 1013.9 hPa 0 mm - 489 W/m² -
1788444991 30° C 79% 1014.1 hPa 0 mm - 534 W/m² -
1788444685 30° C 79% 1014.1 hPa 0 mm - 459 W/m² -
1788444382 29.44° C 80% 1013.9 hPa 0 mm - 505 W/m² -
1788444092 29.44° C 80% 1014.1 hPa 0 mm - 478 W/m² -
1788443773 29.44° C 80% 1014 hPa 0 mm - 462 W/m² -
1788443473 28.89° C 81% 1013.8 hPa 0 mm - 403 W/m² -
1788443171 28.89° C 84% 1013.9 hPa 0 mm - 366 W/m² -
1788442868 28.89° C 83% 1014 hPa 0 mm - 337 W/m² -
1788442576 28.33° C 84% 1013.9 hPa 0 mm - 310 W/m² -
1788442261 28.33° C 86% 1014 hPa 0 mm - 320 W/m² -

* Rain latest hour (hover to see other rain measurements)
** Current wind speed in m/s (hover to see current wind gust speed)